FW4317 Weather Reports


time (UTC)temp
C
wind
direction
speed
KPH
gust
KPH
rain 1hr
cm
rain 24hr
cm
rain mn
cm
humidity
%
barometer
mb
20260509011516 17 133 6.4 12.9 0.58 1.45 1.45 89 1007.0
20260509010516 17 129 4.8 12.9 1.24 1.45 1.45 90 1007.3
20260509005516 16 134 1.6 9.7 1.37 1.42 1.42 89 1007.8
20260509004516 16 130 1.6 9.7 1.27 1.27 1.27 88 1008.1
20260509003516 16 84 1.6 14.5 1.24 1.24 1.24 87 1006.7
20260509002536 16 36 3.2 14.5 1.22 1.22 1.22 87 1007.4
20260509001516 16 356 3.2 14.5 0.86 0.86 0.86 86 1008.2
20260509000536 17 30 8.0 22.5 0.20 0.20 0.20 81 1006.3
20260508235516 20 6 8.0 30.6 0.05 0.05 0.05 75 1008.1
20260508234516 21 16 9.7 25.7 0.00 0.00 0.00 66 1006.6
20260508233516 23 346 8.0 30.6 0.00 0.00 0.00 60 1006.3
20260508232536 25 139 3.2 12.9 0.00 0.00 0.00 55 1006.2
20260508231516 26 153 1.6 6.4 0.00 0.00 0.00 53 1005.5
20260508230516 26 153 0.0 4.8 0.00 0.00 0.00 52 1005.2
20260508225516 26 152 0.0 11.3 0.00 0.00 0.00 50 1005.1
20260508224536 27 163 1.6 8.0 0.00 0.00 0.00 49 1005.3
20260508223516 27 163 0.0 6.4 0.00 0.00 0.00 49 1005.5
20260508222516 27 163 1.6 11.3 0.00 0.00 0.00 48 1005.5
20260508221516 27 163 1.6 11.3 0.00 0.00 0.00 48 1005.6
20260508220516 27 163 1.6 11.3 0.00 0.00 0.00 47 1005.6
20260508215536 27 163 1.6 4.8 0.00 0.00 0.00 48 1005.9
20260508214536 27 163 1.6 8.0 0.00 0.00 0.00 48 1006.1
20260508213516 27 163 1.6 6.4 0.00 0.00 0.00 47 1006.4
20260508212516 27 163 1.6 4.8 0.00 0.00 0.00 47 1006.8
20260508211516 27 163 1.6 12.9 0.00 0.00 0.00 47 1006.8
20260508210516 27 163 1.6 11.3 0.00 0.00 0.00 47 1007.0
20260508205516 27 163 1.6 8.0 0.00 0.00 0.00 46 1007.1
20260508204516 27 163 1.6 9.7 0.00 0.00 0.00 47 1007.4
20260508203516 27 163 1.6 11.3 0.00 0.00 0.00 46 1007.4
20260508202516 27 166 1.6 6.4 0.00 0.00 0.00 46 1007.5
20260508201516 27 165 1.6 14.5 0.00 0.00 0.00 46 1007.7
20260508200516 27 165 1.6 9.7 0.00 0.00 0.00 47 1007.9
20260508195516 26 165 1.6 12.9 0.00 0.00 0.00 48 1008.0
20260508194536 26 164 1.6 11.3 0.00 0.00 0.00 47 1008.2
20260508193516 26 164 1.6 14.5 0.00 0.00 0.00 49 1008.3
20260508192516 25 163 1.6 11.3 0.00 0.00 0.00 49 1008.5
20260508191536 25 165 3.2 14.5 0.00 0.00 0.00 51 1008.5
20260508190516 25 167 3.2 17.7 0.00 0.00 0.00 49 1008.6
20260508185516 25 166 1.6 11.3 0.00 0.00 0.00 48 1008.7
20260508184516 25 165 1.6 14.5 0.00 0.00 0.00 47 1008.9
20260508183516 25 165 3.2 9.7 0.00 0.00 0.00 49 1009.0
20260508182516 25 165 1.6 12.9 0.00 0.00 0.00 48 1009.2
20260508181536 25 165 1.6 14.5 0.00 0.00 0.00 50 1009.4
20260508180516 25 167 1.6 12.9 0.00 0.00 0.00 51 1009.6
20260508175516 24 167 1.6 16.1 0.00 0.00 0.00 52 1009.8
20260508174516 24 167 3.2 11.3 0.00 0.00 0.00 53 1010.0
20260508173556 24 167 4.8 16.1 0.00 0.00 0.00 51 1010.2
20260508172516 23 163 1.6 16.1 0.00 0.00 0.00 54 1010.3
20260508171516 23 163 1.6 11.3 0.00 0.00 0.00 54 1010.7
20260508170516 23 163 1.6 11.3 0.00 0.00 0.00 54 1010.7
20260508165516 23 162 1.6 11.3 0.00 0.00 0.00 55 1010.9
20260508164516 22 162 1.6 12.9 0.00 0.00 0.00 57 1011.1
20260508163516 22 162 4.8 17.7 0.00 0.00 0.00 58 1011.1
20260508162516 22 167 4.8 14.5 0.00 0.00 0.00 58 1011.4
20260508161516 21 170 3.2 19.3 0.00 0.00 0.00 60 1011.4
20260508160516 21 169 1.6 17.7 0.00 0.00 0.00 59 1011.6
20260508155516 21 178 1.6 14.5 0.00 0.00 0.00 59 1011.6
20260508154516 21 182 1.6 11.3 0.00 0.00 0.00 62 1011.9
20260508153536 20 182 1.6 16.1 0.00 0.00 0.00 62 1012.2
20260508152516 20 184 1.6 12.9 0.00 0.00 0.00 63 1012.3
20260508151536 20 187 3.2 17.7 0.00 0.00 0.00 64 1012.4
20260508150536 19 192 1.6 11.3 0.00 0.00 0.00 66 1012.6
20260508145536 18 209 6.4 17.7 0.00 0.00 0.00 67 1012.7
20260508144516 18 224 1.6 9.7 0.00 0.00 0.00 69 1012.8
20260508143516 18 225 1.6 9.7 0.00 0.00 0.00 71 1013.0
20260508142516 17 227 1.6 8.0 0.00 0.00 0.00 72 1013.1
20260508141516 17 227 1.6 9.7 0.00 0.00 0.00 73 1013.2
20260508140516 16 227 1.6 6.4 0.00 0.00 0.00 74 1013.1
20260508135516 16 227 1.6 6.4 0.00 0.00 0.00 76 1013.3
20260508134516 15 227 1.6 8.0 0.00 0.00 0.00 76 1013.5
20260508133516 15 227 1.6 4.8 0.00 0.00 0.00 77 1013.4
20260508132516 15 227 1.6 6.4 0.00 0.00 0.00 77 1013.5
20260508131516 14 227 1.6 6.4 0.00 0.00 0.00 78 1013.5
20260508130516 13 227 0.0 3.2 0.00 0.00 0.00 80 1013.6
20260508125516 13 227 0.0 3.2 0.00 0.00 0.00 80 1013.5
20260508124536 12 227 0.0 4.8 0.00 0.00 0.00 81 1013.5
20260508123516 12 227 0.0 1.6 0.00 0.00 0.00 83 1013.4
20260508122516 12 228 0.0 3.2 0.00 0.00 0.00 83 1013.4
20260508121516 12 0.0 0.0 0.00 0.00 0.00 83 1013.3
20260508120516 11 229 0.0 3.2 0.00 0.00 0.00 83 1013.3
20260508115516 11 0.0 1.6 0.00 0.00 0.00 82 1013.2
20260508114516 11 229 0.0 6.4 0.00 0.00 0.00 82 1013.1
20260508113516 11 229 0.0 4.8 0.00 0.00 0.00 82 1013.1
20260508112616 11 0.0 0.0 0.00 0.00 0.00 81 1013.0
20260508111536 11 229 0.0 4.8 0.00 0.00 0.00 80 1012.9
20260508110516 11 229 0.0 6.4 0.00 0.00 0.00 80 1012.7
20260508105536 11 229 1.6 9.7 0.00 0.00 0.00 79 1012.6
20260508104516 12 229 1.6 8.0 0.00 0.00 0.00 78 1012.5
20260508103516 12 229 1.6 9.7 0.00 0.00 0.00 77 1012.4
20260508102516 12 232 1.6 8.0 0.00 0.00 0.00 76 1012.4
20260508101516 12 232 1.6 9.7 0.00 0.00 0.00 76 1012.3
20260508100536 12 232 1.6 8.0 0.00 0.00 0.00 75 1012.2
20260508095516 12 233 1.6 11.3 0.00 0.00 0.00 75 1012.2
20260508094536 12 238 1.6 9.7 0.00 0.00 0.00 75 1012.1
20260508093516 12 240 1.6 8.0 0.00 0.00 0.00 75 1012.1
20260508092536 12 240 1.6 8.0 0.00 0.00 0.00 76 1012.2
20260508091516 12 240 1.6 6.4 0.00 0.00 0.00 77 1012.2
20260508090516 12 241 0.0 3.2 0.00 0.00 0.00 76 1012.3
20260508085516 12 241 0.0 8.0 0.00 0.00 0.00 76 1012.3
20260508084516 12 0.0 1.6 0.00 0.00 0.00 76 1012.2
20260508083516 12 241 0.0 4.8 0.00 0.00 0.00 76 1012.3
20260508082516 12 241 0.0 3.2 0.00 0.00 0.00 76 1012.4
20260508081516 12 241 0.0 4.8 0.00 0.00 0.00 76 1012.4
20260508080516 12 241 0.0 4.8 0.00 0.00 0.00 75 1012.5
20260508075516 12 241 0.0 6.4 0.00 0.00 0.00 74 1012.6
20260508074516 12 241 1.6 6.4 0.00 0.00 0.00 73 1012.7
20260508073516 13 241 1.6 8.0 0.00 0.00 0.00 72 1012.8
20260508072516 13 242 1.6 6.4 0.00 0.00 0.00 71 1012.9
20260508071516 13 242 0.0 6.4 0.00 0.00 0.00 70 1013.1
20260508070536 13 242 1.6 4.8 0.00 0.00 0.00 69 1013.3
20260508065516 13 242 1.6 6.4 0.00 0.00 0.00 68 1013.4
20260508064516 13 242 1.6 8.0 0.00 0.00 0.00 68 1013.5
20260508063516 13 242 0.0 4.8 0.00 0.00 0.00 68 1013.5
20260508062536 13 242 0.0 4.8 0.00 0.00 0.00 68 1013.6
20260508061516 13 242 1.6 6.4 0.00 0.00 0.00 68 1013.5
20260508060516 13 242 0.0 4.8 0.00 0.00 0.00 69 1013.5
20260508055516 14 243 0.0 6.4 0.00 0.00 0.00 69 1013.4
20260508054536 14 244 1.6 8.0 0.00 0.00 0.00 69 1013.4
20260508053516 14 244 1.6 8.0 0.00 0.00 0.00 68 1013.4
20260508052516 14 245 0.0 8.0 0.00 0.00 0.00 67 1013.5
20260508051516 14 246 0.0 4.8 0.00 0.00 0.00 66 1013.5
20260508050536 14 247 1.6 6.4 0.00 0.00 0.00 66 1013.5
20260508045516 15 247 0.0 3.2 0.00 0.00 0.00 65 1013.5
20260508044536 15 0.0 3.2 0.00 0.00 0.00 64 1013.6
20260508043516 15 0.0 3.2 0.00 0.00 0.00 64 1013.7
20260508042516 15 247 0.0 3.2 0.00 0.00 0.00 63 1013.7
20260508041516 15 247 0.0 4.8 0.00 0.00 0.00 63 1013.7
20260508040536 15 247 0.0 3.2 0.00 0.00 0.00 62 1013.6
20260508035536 15 247 0.0 3.2 0.00 0.00 0.00 61 1013.7
20260508034516 15 247 0.0 3.2 0.00 0.00 0.00 61 1013.7
20260508033516 15 247 0.0 3.2 0.00 0.00 0.00 60 1013.8
20260508032516 16 247 0.0 3.2 0.00 0.00 0.00 59 1013.8
20260508031516 16 247 0.0 3.2 0.00 0.00 0.00 59 1013.8
20260508030516 16 0.0 3.2 0.00 0.00 0.00 58 1013.7
20260508025536 16 247 0.0 3.2 0.00 0.00 0.00 57 1013.6
20260508024516 16 247 0.0 3.2 0.00 0.00 0.00 56 1013.5
20260508023516 17 248 0.0 3.2 0.00 0.00 0.00 55 1013.5
20260508022516 17 247 0.0 1.6 0.00 0.00 0.00 54 1013.4
20260508021517 17 247 0.0 3.2 0.00 0.00 0.00 53 1013.2
20260508020556 17 0.0 3.2 0.00 0.00 0.00 52 1013.2
20260508015516 18 247 0.0 3.2 0.00 0.00 0.00 51 1013.2
20260508014516 18 0.0 0.0 0.00 0.00 0.00 50 1013.1
20260508013516 18 0.0 0.0 0.00 0.00 0.00 49 1012.9
20260508012556 19 0.0 0.0 0.00 0.00 0.00 47 1012.8